User: anonymous   Login
Location: Unspecified
(0.0000°N, 0.0000°E)
Time: 07:22:50
(UTC+00:00)
Language:

Nova 2 - Orbit

View from above orbital plane
View from above orbital plane
View from above satellite
View from above satellite

Ground track
Ground track

The orbit is defined by the following mean orbital elements,

1 19223U          26106.65514748 +.00000000 +00000-0 +51511-4 0 00002
2 19223  89.9820  78.0493 0031554  32.4154 141.6458 13.22952407    07
Epoch (UTC): 16 April 2026 15:43:24
Eccentricity: 0.0031554
inclination: 89.9820°
perigee height: 1150 km
apogee height: 1197 km
right ascension of ascending node: 78.0493°
argument of perigee: 32.4154°
revolutions per day: 13.22952407
mean anomaly at epoch: 141.6458°

The dashed part of the orbit path shows where the satellite is in the earth's shadow,  

DLR